Change the Weather History Date:

Sunday, February 16, 2014

  Actual Average Record
Temperature  
Mean Temperature 28 °F -  
Max Temperature 37 °F 32 °F 42 °F (1997)
Min Temperature 19 °F 5 °F -13 °F (1978)
Degree Days  
Heating Degree Days 37 47  
Month to date heating degree days 767 763  
Since 1 July heating degree days 7006 7160  
Cooling Degree Days 0 0  
Month to date cooling degree days 0 0  
Year to date cooling degree days 0 0  
Moisture  
Dew Point 16 °F    
Average Humidity 57    
Maximum Humidity 75    
Minimum Humidity 38    
Precipitation  
Precipitation 0.01 in 0.03 in 0.41 in (1986)
Month to date precipitation 0.87 0.37  
Year to date precipitation 3.83 0.99  
Sea Level Pressure  
Sea Level Pressure 29.91 in    
Wind  
Wind Speed 10 mph (WNW)    
Max Wind Speed 36 mph    
Max Gust Speed 49 mph    
Visibility 6 miles    
Events Snow    
T = Trace of Precipitation, MM = Missing Value Source: NWS Daily Summary

Daily Weather History Graph

Daily Weather History Graph

Search for Another Location

Airport or City:

Trip Planner

Search our weather history database for the weather conditions in past years. The results will help you decide how hot, cold, wet, or windy it might be!

Date:

Astronomy

Feb. 16, 2014 Rise Set
Actual Time 6:55 AM MST 5:43 PM MST
Civil Twilight 6:28 AM MST 6:10 PM MST
Nautical Twilight 5:56 AM MST 6:42 PM MST
Astronomical Twilight 5:25 AM MST 7:13 PM MST
Moon 7:41 PM MST (2/16) 7:27 AM MST (2/16)
Length of Visible Light 11h 42m
Length of Day
10h 47m
Full, 97% of the Moon is Illuminated
Feb 16
Full
Feb 22
Last Quarter
Mar 1
New
Mar 8
First Quarter
Mar 16
Full

Hourly Weather History & Observations

Time (MST) Temp. Windchill Dew Point Humidity Pressure Visibility Wind Dir Wind Speed Gust Speed Precip Events Conditions
12:53 AM 34.0 °F 27.2 °F 12.9 °F 42% 29.91 in 10.0 mi NNE 8.1 mph 20.7 mph N/A   Clear
1:53 AM 33.1 °F 26.1 °F 12.9 °F 43% 29.89 in 10.0 mi NNE 8.1 mph 18.4 mph N/A   Clear
2:53 AM 30.9 °F 25.2 °F 12.0 °F 46% 29.87 in 10.0 mi NNE 5.8 mph - N/A   Clear
3:53 AM 28.0 °F 19.3 °F 10.9 °F 49% 29.87 in 10.0 mi NE 9.2 mph - N/A   Clear
4:53 AM 26.1 °F 21.9 °F 10.9 °F 53% 29.86 in 10.0 mi Variable 3.5 mph - N/A   Clear
5:53 AM 23.0 °F 18.4 °F 12.0 °F 63% 29.90 in 10.0 mi Variable 3.5 mph - N/A   Clear
6:53 AM 26.1 °F 17.6 °F 9.0 °F 49% 29.87 in 10.0 mi ESE 8.1 mph - N/A   Clear
7:53 AM 26.1 °F - 10.0 °F 51% 29.87 in 10.0 mi Calm Calm - N/A   Mostly Cloudy
8:53 AM 32.0 °F 26.4 °F 10.0 °F 40% 29.83 in 10.0 mi South 5.8 mph - N/A   Clear
9:53 AM 36.0 °F - 12.0 °F 37% 29.80 in 10.0 mi Calm Calm - N/A   Mostly Cloudy
10:53 AM 33.1 °F 23.0 °F 19.0 °F 56% 29.85 in 10.0 mi West 15.0 mph 21.9 mph N/A   Clear
11:53 AM 35.1 °F - 21.0 °F 57% 29.78 in 10.0 mi Calm Calm - N/A   Scattered Clouds
12:53 PM 36.0 °F 32.1 °F 19.9 °F 52% 29.72 in 10.0 mi North 4.6 mph - N/A   Overcast
1:53 PM 34.0 °F 24.6 °F 18.0 °F 52% 29.70 in 10.0 mi South 13.8 mph - N/A   Overcast
2:53 PM 33.1 °F 27.7 °F 19.9 °F 59% 29.72 in 10.0 mi South 5.8 mph - N/A   Overcast
3:53 PM 34.0 °F 29.8 °F 19.0 °F 54% 29.72 in 10.0 mi WSW 4.6 mph - 0.00 in   Overcast
4:53 PM 34.0 °F 27.2 °F 16.0 °F 48% 29.72 in 10.0 mi WSW 8.1 mph 17.3 mph 0.00 in   Overcast
5:29 PM 30.0 °F 16.9 °F 21.0 °F 69% 29.94 in 0.8 mi West 21.9 mph 36.8 mph 0.00 in Snow Light Snow
5:34 PM 28.9 °F 16.9 °F 24.1 °F 82% 29.95 in 0.2 mi WSW 17.3 mph 36.8 mph 0.00 in Snow Heavy Snow
5:44 PM 28.0 °F 20.0 °F 24.1 °F 85% 29.95 in 1.0 mi SW 8.1 mph 17.3 mph 0.00 in Snow Light Snow
5:49 PM 28.4 °F 23.3 °F 24.8 °F 86% 29.95 in 3.0 mi South 4.6 mph - 0.00 in Snow Light Snow
5:53 PM 27.0 °F - 24.1 °F 89% 29.83 in 5.0 mi Calm Calm - 0.00 in Snow Light Snow
6:53 PM 32.0 °F 21.6 °F 17.1 °F 54% 29.80 in 3.0 mi WNW 15.0 mph 35.7 mph 0.00 in   Overcast
7:46 PM 30.0 °F 14.2 °F 19.0 °F 64% 29.97 in 1.8 mi WNW 33.4 mph 43.7 mph 0.00 in   Overcast
7:53 PM 30.0 °F 16.9 °F 19.0 °F 64% 29.82 in 2.5 mi WNW 21.9 mph 41.4 mph 0.00 in   Overcast
8:00 PM 30.0 °F 16.6 °F 18.0 °F 61% 29.98 in 9.0 mi WNW 23.0 mph 34.5 mph 0.00 in   Overcast
8:13 PM 28.0 °F 13.6 °F 21.0 °F 75% 29.99 in 1.8 mi WNW 24.2 mph 36.8 mph 0.00 in Snow Light Snow
8:17 PM 28.0 °F 14.6 °F 21.0 °F 75% 29.99 in 0.8 mi West 20.7 mph 36.8 mph 0.00 in Snow Light Snow
8:53 PM 27.0 °F 12.2 °F 19.9 °F 75% 29.83 in 1.0 mi WNW 24.2 mph 38.0 mph 0.01 in Snow Light Snow
9:00 PM 26.1 °F 10.4 °F 18.0 °F 71% 30.02 in 1.2 mi WNW 26.5 mph 34.5 mph 0.00 in Snow Light Snow
9:06 PM 25.0 °F 8.1 °F 16.0 °F 69% 30.02 in 0.8 mi NW 29.9 mph 48.3 mph 0.00 in   Overcast
9:13 PM 26.1 °F 11.3 °F 15.1 °F 63% 30.02 in 1.0 mi WNW 23.0 mph 48.3 mph 0.00 in   Mostly Cloudy
9:36 PM 26.1 °F 12.7 °F 14.0 °F 60% 30.04 in 3.0 mi WNW 18.4 mph 36.8 mph 0.00 in   Overcast
9:53 PM 25.0 °F 8.4 °F 14.0 °F 63% 29.88 in 4.0 mi NW 28.8 mph 44.9 mph 0.00 in   Overcast
10:01 PM 25.0 °F 9.9 °F 12.9 °F 60% 30.06 in 2.0 mi NW 23.0 mph 44.9 mph 0.00 in   Overcast
10:09 PM 24.1 °F 8.3 °F 14.0 °F 65% 30.06 in 4.0 mi WNW 24.2 mph 36.8 mph 0.00 in   Overcast
10:27 PM 23.0 °F 6.0 °F 12.0 °F 63% 30.08 in 2.5 mi WNW 27.6 mph 43.7 mph 0.00 in Snow Blowing Snow
10:37 PM 21.9 °F 4.5 °F 10.9 °F 63% 30.09 in 3.0 mi WNW 27.6 mph 38.0 mph 0.00 in   Overcast
10:46 PM 21.9 °F 5.1 °F 10.0 °F 60% 30.10 in 2.0 mi WNW 25.3 mph 39.1 mph 0.00 in Snow Blowing Snow
10:53 PM 21.0 °F 3.6 °F 9.0 °F 60% 29.98 in 3.0 mi WNW 26.5 mph 43.7 mph 0.00 in Snow Blowing Snow
11:53 PM 19.0 °F 4.0 °F 6.1 °F 57% 30.02 in 10.0 mi WNW 17.3 mph 27.6 mph N/A   Partly Cloudy